Location: Eaton Estates
(41.3089°N, 82.0057°W)
Time: 15:08:51
(UTC+00:00)

ATLAS CENTAUR R/B - Pass Details

Date: 17 June 2021
Orbit: 472 x 671 km, 64.6° (Epoch: 13 June)

Event Time Altitude Azimuth Distance (km) Brightness Sun altitude
Rises 02:25:38 0° 341° (NNW) 2,772 6.2 -12.6°
Reaches altitude 10° 02:28:46 10° 7° (N) 1,919 4.7 -13.0°
Maximum altitude 02:31:10 14° 41° (NE) 1,675 3.9 -13.3°
Drops below altitude 10° 02:33:39 10° 75° (ENE) 1,982 3.9 -13.6°
Enters shadow 02:34:48 - 85° (E) 2,267 4.1 -13.8°
